Location: Ramillies
(50.6368°N, 4.9145°E)
Time: 00:29:37
(UTC+02:00)

ISS - Visible Passes

Search period start: 06 May 2021 00:00
Search period end: 16 May 2021 00:00
Orbit: 418 x 421 km, 51.6° (Epoch: 05 May)

Date Brightness Start Highest point End Pass type
(mag) Time Alt. Az. Time Alt. Az. Time Alt. Az.
06 May -1.8 02:48:19 20° ESE 02:48:19 20° ESE 02:49:47 10° E visible
06 May -3.8 04:21:16 21° WSW 04:23:21 89° NNW 04:26:46 10° ENE visible
07 May -3.9 03:35:21 56° SW 03:35:56 75° SSE 03:39:19 10° ENE visible
07 May -3.5 05:09:26 10° W 05:12:49 72° N 05:16:12 10° E visible
08 May -2.9 02:49:24 41° ESE 02:49:24 41° ESE 02:51:52 10° ENE visible
08 May -3.6 04:22:20 12° W 04:25:21 73° N 04:28:44 10° E visible
09 May -1.5 02:03:25 17° E 02:03:25 17° E 02:04:24 10° E visible
09 May -3.7 03:36:21 30° W 03:37:53 78° N 03:41:16 10° E visible
09 May -3.7 05:11:24 10° WNW 05:14:48 87° N 05:18:12 10° ESE visible
10 May -3.9 02:50:21 85° W 02:50:26 89° NNW 02:53:49 10° ENE visible
10 May -3.6 04:23:58 10° W 04:27:21 77° N 04:30:45 10° E visible
11 May -2.5 02:04:19 34° E 02:04:19 34° E 02:06:22 10° ENE visible
11 May -3.6 03:37:15 16° W 03:39:52 72° N 03:43:16 10° E visible
11 May -3.7 05:13:21 10° WNW 05:16:42 61° SSW 05:20:03 10° ESE visible
12 May -1.4 01:18:14 15° E 01:18:14 15° E 01:18:54 10° ENE visible
12 May -3.6 02:51:09 36° W 02:52:24 73° N 02:55:47 10° E visible
12 May -3.8 04:25:54 10° WNW 04:29:17 78° SSW 04:32:40 10° ESE visible
13 May -3.7 02:04:58 78° N 02:04:58 78° N 02:08:19 10° E visible
13 May -3.8 03:38:26 10° WNW 03:41:50 87° N 03:45:14 10° ESE visible
14 May -2.8 01:18:34 40° ENE 01:18:34 40° ENE 01:20:51 10° ENE visible
14 May -3.7 02:51:27 13° W 02:54:22 77° N 02:57:45 10° E visible
14 May -3.5 04:27:51 10° W 04:31:06 44° SSW 04:34:20 10° SE visible
14 May -2.5 22:50:53 10° SSW 22:53:32 22° SE 22:55:35 13° E visible
15 May -3.9 00:26:38 10° WSW 00:30:00 76° SSE 00:33:23 10° ENE visible
15 May -3.6 02:03:30 10° W 02:06:52 72° N 02:10:16 10° E visible
15 May -3.8 03:40:22 10° WNW 03:43:42 60° SSW 03:47:03 10° ESE visible
15 May -2.0 22:04:16 10° S 22:06:17 15° SE 22:08:17 10° ESE visible
15 May -3.8 23:39:15 10° WSW 23:42:34 58° SSE 23:45:54 10° ENE visible
